Flag for U.S.A. Weather past 2 weeks in Portland, Oregon, U.S.A.

Now
54 °F

Cloudy.


Feels Like: 52 °F
Forecast: 51 / 57 °F
Wind: 7 mph from Southwest

Location: Portland International Airport

Current Time: Dec 21, 2014 at 10:04:19 AM

Latest Report: Dec 21, 2014 at 8:53 AM


Visibility: 10 mi

Pressure: 29.99 "Hg

Humidity: 86%

Dew point: 50 °F

Location of PortlandLocation

Historic Weather in Portland — Graph

°F

Portland temperature yesterday

Maximum temperature yesterday: 58 °F (at 9:53 PM)
Minimum temperature yesterday: 45 °F (at 1:53 AM)
Average temperature yesterday: 50 °F

Past Weeks' High & Low Weather Summary

 TemperatureHumidityPressure
High63 °F (Dec 11, 2:53 PM)100% (Dec 7, 3:53 AM)30.24 "Hg (Dec 7, 3:53 AM)
Low36 °F (Dec 7, 7:53 AM)48% (Dec 11, 2:53 PM)29.13 "Hg (Dec 11, 7:53 AM)
Average47 °F84%29.88 "Hg
* Reported Dec 6 8:53 AM — Dec 21 8:53 AM, Portland, Weather by CustomWeather, © 2014

Note: Actual official high and low records may vary slightly from our data, if they occured in-between our weather recording intervals... More about our weather records

Advertising

Portland weather history for previous 24 hours

 ConditionsComfort  
Time TempWeatherWind HumidityBarometerVisibility
8:53 AM
Dec 21
54 °FCloudy.7 mph86%29.99 "Hg10 mi
7:53 AM54 °FCloudy.13 mph83%29.95 "Hg10 mi
6:53 AM55 °FPassing clouds.14 mph83%29.93 "Hg10 mi
5:53 AM55 °FMostly cloudy.10 mph83%29.91 "Hg10 mi
4:53 AM55 °FMostly cloudy.7 mph80%29.90 "Hg10 mi
3:53 AM56 °FPassing clouds.8 mph77%29.88 "Hg10 mi
2:53 AM56 °FMostly cloudy.8 mph77%29.86 "Hg10 mi
1:53 AM58 °FMostly cloudy.9 mph75%29.81 "Hg10 mi
12:53 AM58 °FOvercast.6 mph87%29.77 "Hg10 mi
11:53 PM
Dec 20
58 °FLight rain. Overcast.9 mph90%29.71 "Hg9 mi
10:53 PM58 °FLight rain. Mostly cloudy.13 mph90%29.70 "Hg10 mi
9:53 PM58 °FLight rain. Mostly cloudy.10 mph90%29.67 "Hg10 mi
8:53 PM57 °FLight rain. Overcast.10 mph93%29.65 "Hg10 mi
8:04 PM57 °FLight rain. Overcast.9 mph93%29.65 "Hg10 mi
7:53 PM57 °FLight rain. Mostly cloudy.10 mph93%29.65 "Hg10 mi
6:53 PM56 °FLight rain. Mostly cloudy.14 mph93%29.65 "Hg10 mi
5:53 PM56 °FLight rain. Mostly cloudy.14 mph93%29.64 "Hg10 mi
4:53 PM55 °FLight rain. Mostly cloudy.16 mph93%29.63 "Hg10 mi
3:53 PM54 °FLight rain. Mostly cloudy.15 mph93%29.64 "Hg10 mi
2:53 PM53 °FLight rain. Overcast.12 mph93%29.63 "Hg10 mi
1:53 PM53 °FLight rain. Fog.17 mph93%29.65 "Hg5 mi
1:03 PM46 °FLight rain. Fog.12 mph100%29.66 "Hg4 mi
12:53 PM46 °FLight rain. Fog.13 mph96%29.65 "Hg4 mi
11:53 AM46 °FLight rain. Fog.14 mph96%29.68 "Hg6 mi
10:53 AM45 °FRain. Fog.16 mph100%29.72 "Hg5 mi
Weather by CustomWeather, © 2014

See weather overviewHow to use our weather pages